Regional Weather Roundup
Issued by NWS

Home | Current Version | Previous Version | Text Only | Print | Product List | Glossary Off
Versions: 1 2 3 4 5 6 7 8 9 10 11 12 13 14 15 16 17 18 19 20 21 22 23 24 25 26 27 28 29 30 31 32 33 34 35 36 37 38 39 40 41 42 43 44 45 46 47 48 49 50

000
ASUS45 KPSR 060110
RWRAZ

ARIZONA REGIONAL HOURLY WEATHER ROUNDUP
NATIONAL WEATHER SERVICE PHOENIX AZ
600 PM MST THU MAR 05 2015

NOTE: FAIR INDICATES FEW OR NO CLOUDS BELOW 12,000 FEET WITH NO
SIGNIFICANT WEATHER AND/OR OBSTRUCTIONS TO VISIBILITY.

AZZ001>003-036-060200-
NORTHWEST ARIZONA

CITY           SKY/WX    TMP DP  RH WIND       PRES   REMARKS
BULLHEAD CITY  CLEAR     68  19  15 N20G25    30.23S
KINGMAN        CLEAR     58  27  30 N12       30.28S
$$

AZZ004>008-015-016-018-060200-
NORTH CENTRAL ARIZONA

CITY           SKY/WX    TMP DP  RH WIND       PRES   REMARKS
GRAND CANYON   CLEAR     45   4  18 NW3       30.36S
PRESCOTT       PTCLDY    57   5  12 NW6       30.29S
FLAGSTAFF      PTCLDY    41  15  35 E10       30.36R
PAYSON         PTCLDY    55  19  24 N7        30.29S
PAGE           CLEAR     49  23  36 NE6       30.34F
$$

AZZ009>014-017-060200-
NORTHEAST ARIZONA

CITY           SKY/WX    TMP DP  RH WIND       PRES   REMARKS
WINSLOW        CLEAR     51  12  21 NW6       30.34S
SAINT JOHNS    PTCLDY    51   3  14 NW8       30.31R
WINDOW ROCK    PTCLDY    47   4  17 N8        30.34R
SHOW LOW       PTCLDY    45   7  21 N8        30.36R
$$

AZZ023-060200-
GREATER PHOENIX AREA

CITY           SKY/WX    TMP DP  RH WIND       PRES   REMARKS
PHOENIX        CLEAR     73  13  10 CALM      30.14S
BUCKEYE        CLEAR     68  32  26 SW3       30.17S
GLENDALE       CLEAR     73  10   9 CALM      30.17S
LUKE AFB       CLEAR     72  16  11 W2        30.15S
DEER VALLEY    CLEAR     71  10   9 CALM      30.15S
SCOTTSDALE     CLEAR     72  12  10 CALM      30.17S
MESA-FALCON    CLEAR     70  14  11 NW7       30.16R
MESA-GATEWAY   CLEAR     70  23  17 CALM      30.18R
CHANDLER       CLEAR     72  19  14 CALM      30.16S
$$

AZZ027-028-060200-
SOUTHWEST MARICOPA COUNTY AND PINAL COUNTY

CITY           SKY/WX    TMP DP  RH WIND       PRES   REMARKS
CASA GRANDE    CLEAR     70  21  16 NW7       30.17R
GILA BEND      CLEAR     70  22  16 N8        30.15S
$$

AZZ503-504-507>509-060200-
SOUTHEAST ARIZONA

CITY           SKY/WX    TMP DP  RH WIND       PRES   REMARKS
TUCSON         CLEAR     67  14  13 NE15G21   30.18S
DAVIS-MONTHAN  CLEAR     65  17  15 E14G20    30.16R
RYAN FIELD       N/A     70  21  16 NE12      30.17S
NOGALES        CLEAR     62  19  19 E6        30.17S
SIERRA VISTA   CLEAR     55  23  28 E16       30.22S
DOUGLAS        CLEAR     54  24  31 E17       30.24S
SAFFORD        CLEAR     61  16  17 S12       30.23S
$$

AZZ020-021-025-026-031-060200-
SOUTHWEST ARIZONA

CITY           SKY/WX    TMP DP  RH WIND       PRES   REMARKS
YUMA           CLEAR     74  28  18 N12       30.15S
$$

CAZ031-033-041-043-047-048-061-060200-
SOUTHERN CALIFORNIA

CITY           SKY/WX    TMP DP  RH WIND       PRES   REMARKS
DOWNTOWN L.A.  CLEAR     71  23  16 VRB3      30.17S
L.A. AIRPORT   SUNNY     67  28  23 W13       30.18S
SAN DIEGO      CLEAR     70  34  26 N15       30.14F
BURBANK        CLEAR     70  19  14 SW8       30.17S
ONTARIO        CLEAR     71  27  19 W7        30.17S
RIVERSIDE      CLEAR     76  13   9 N6        30.16S
PALM SPRINGS   CLEAR     75  11   8 CALM      30.20S
EL CENTRO NAS  CLEAR     74  23  15 NW5       30.17F
IMPERIAL       CLEAR     72  28  19 NW6       30.16F
BLYTHE         CLEAR     71  35  26 E6        30.19F
NEEDLES        CLEAR     70  22  16 N12       30.22S
$$

NVZ020-UTZ003-060200-
SOUTHERN NEVADA-UTAH

CITY           SKY/WX    TMP DP  RH WIND       PRES   REMARKS
LAS VEGAS      CLEAR     63  22  20 CALM      30.26S
SALT LAKE CITY PTCLDY    47  21  35 N6        30.40S
$$

NMZ009-TXZ055-060200-
NEW MEXICO-WEST TEXAS

CITY           SKY/WX    TMP DP  RH WIND       PRES   REMARKS
ALBUQUERQUE    CLEAR     51   0  12 N16       30.30S
EL PASO        CLEAR     48  19  31 E6        30.34F
$$


........................KEY........................
SKY/WX - SKY CONDITION/WEATHER
TMP    - TEMPERATURE IN FAHRENHEIT
DP     - DEW POINT IN FAHRENHEIT
RH     - RELATIVE HUMIDITY IN PERCENT
WIND   - DIRECTION AND SPEED IN MILES PER HOUR (MPH)
VRB    - VARIABLE WIND DIRECTION
PRES   - MEAN SEA LEVEL PRESSURE IN INCHES OF MERCURY
         F - FALLING PRESSURE   R - RISING PRESSURE
         S - STEADY PRESSURE
VSB    - VISIBILITY IN MILES
HX     - HEAT INDEX IN FAHRENHEIT
WCI    - WIND CHILL INDEX IN FAHRENHEIT
TC     - TEMPERATURE IN CELSIUS WHICH IS ALSO KNOWN AS
         TEMPERATURE IN CENTIGRADE
AFB    - AIR FORCE BASE
         LUKE AFB IS LUKE AIR FORCE BASE
         DAVIS-MONTHAN IS DAVIS-MONTHAN AIR FORCE BASE
NAS    - NAVAL AIR STATION
         EL CENTRO NAS IS EL CENTRO NAVAL AIR STATION
N/A    - NOT AVAILABLE



USA.gov is the U.S. government's official web portal to all federal, state and local government web resources and services.